CW3996 Weather Reports


Display with metric or nautical units.
time (UTC)temp
F
wind
direction
speed
MPH
gust
MPH
rain 1hr
in
rain 24hr
in
rain mn
in
humidity
%
barometer
mb
20240523180721 56 288 4.0 12.0 0.00 0.00 0.00 22 1015.9
20240523180216 56 50 3.0 12.0 0.00 0.00 0.00 20 1015.8
20240523175729 54 309 3.0 11.0 0.00 0.00 0.00 23 1015.6
20240523175223 56 278 6.0 11.0 0.00 0.00 0.00 23 1015.8
20240523174737 55 25 4.0 8.0 0.00 0.00 0.00 24 1015.5
20240523174230 56 295 3.0 8.0 0.00 0.00 0.00 22 1015.5
20240523173723 55 322 3.0 9.0 0.00 0.00 0.00 25 1015.6
20240523173237 55 274 6.0 9.0 0.00 0.00 0.00 23 1015.5
20240523172729 55 351 4.0 11.0 0.00 0.00 0.00 21 1015.5
20240523172223 54 305 5.0 17.0 0.00 0.00 0.00 23 1015.4
20240523171742 54 359 6.0 17.0 0.00 0.00 0.00 24 1015.3
20240523171214 53 71 4.0 9.0 0.00 0.00 0.00 23 1015.4
20240523170748 53 25 2.0 9.0 0.00 0.00 0.00 22 1015.3
20240523170222 54 33 4.0 9.0 0.00 0.00 0.00 26 1015.3
20240523165735 54 324 5.0 13.0 0.00 0.00 0.00 24 1015.4
20240523165228 53 359 5.0 13.0 0.00 0.00 0.00 24 1015.3
20240523164741 53 47 3.0 13.0 0.00 0.00 0.00 25 1015.4
20240523164235 52 25 4.0 9.0 0.00 0.00 0.00 24 1015.4
20240523163727 53 30 5.0 11.0 0.00 0.00 0.00 27 1015.4
20240523163220 52 283 5.0 11.0 0.00 0.00 0.00 24 1015.3
20240523162713 52 74 5.0 12.0 0.00 0.00 0.00 27 1015.4
20240523162228 51 65 4.0 12.0 0.00 0.00 0.00 25 1015.3
20240523161725 51 84 3.0 12.0 0.00 0.00 0.00 24 1015.3
20240523161219 51 44 5.0 11.0 0.00 0.00 0.00 26 1015.3
20240523160713 51 25 5.0 11.0 0.00 0.00 0.00 26 1015.4
20240523160248 51 20 3.0 11.0 0.00 0.00 0.00 26 1015.4
20240523155720 50 322 4.0 11.0 0.00 0.00 0.00 26 1015.6
20240523155215 50 353 6.0 11.0 0.00 0.00 0.00 27 1015.5
20240523154728 49 358 6.0 11.0 0.00 0.00 0.00 28 1015.6
20240523154243 50 360 6.0 10.0 0.00 0.00 0.00 28 1015.6
20240523153715 49 354 3.0 13.0 0.00 0.00 0.00 28 1015.8
20240523153213 48 341 5.0 13.0 0.00 0.00 0.00 30 1015.6
20240523152727 48 288 4.0 13.0 0.00 0.00 0.00 30 1015.5
20240523152241 47 360 3.0 9.0 0.00 0.00 0.00 31 1015.5
20240523151734 47 25 4.0 9.0 0.00 0.00 0.00 30 1015.4
20240523151227 47 20 4.0 9.0 0.00 0.00 0.00 34 1015.4
20240523150720 47 299 3.0 6.0 0.00 0.00 0.00 34 1015.3
20240523150236 46 25 3.0 5.0 0.00 0.00 0.00 35 1015.3
20240523145728 46 358 1.0 4.0 0.00 0.00 0.00 38 1015.2
20240523145221 47 351 1.0 4.0 0.00 0.00 0.00 38 1015.1
20240523144719 47 298 2.0 4.0 0.00 0.00 0.00 38 1015.0
20240523144213 46 25 1.0 9.0 0.00 0.00 0.00 39 1014.9
20240523143726 47 360 3.0 9.0 0.00 0.00 0.00 42 1014.8
20240523143221 47 293 2.0 9.0 0.00 0.00 0.00 40 1014.8
20240523142714 47 329 3.0 9.0 0.00 0.00 0.00 40 1014.6
20240523142249 47 358 4.0 7.0 0.00 0.00 0.00 40 1014.6
20240523141742 47 356 3.0 6.0 0.00 0.00 0.00 43 1014.5
20240523141235 46 344 2.0 4.0 0.00 0.00 0.00 44 1014.5
20240523140747 46 294 0.0 2.0 0.00 0.00 0.00 45 1014.3
20240523140221 46 295 1.0 3.0 0.00 0.00 0.00 45 1014.3
20240523135719 45 295 2.0 4.0 0.00 0.00 0.00 45 1014.2
20240523135213 45 289 1.0 4.0 0.00 0.00 0.00 46 1014.2
20240523134725 45 290 2.0 4.0 0.00 0.00 0.00 48 1014.1
20240523134220 44 259 3.0 4.0 0.00 0.00 0.00 47 1014.2
20240523133713 44 256 2.0 4.0 0.00 0.00 0.00 48 1014.2
20240523133228 44 306 2.0 4.0 0.00 0.00 0.00 49 1014.1
20240523132721 43 255 1.0 4.0 0.00 0.00 0.00 49 1014.0
20240523132215 43 254 2.0 4.0 0.00 0.00 0.00 49 1013.9
20240523131728 42 249 3.0 4.0 0.00 0.00 0.00 50 1013.8
20240523131226 42 277 2.0 5.0 0.00 0.00 0.00 52 1013.8
20240523130739 41 270 3.0 5.0 0.00 0.00 0.00 53 1013.6
20240523130214 40 251 3.0 4.0 0.00 0.00 0.00 54 1013.5
20240523125747 40 239 3.0 4.0 0.00 0.00 0.00 55 1013.4
20240523125220 40 239 3.0 4.0 0.00 0.00 0.00 55 1013.3
20240523124734 40 243 2.0 3.0 0.00 0.00 0.00 58 1013.2
20240523124227 39 139 2.0 2.0 0.00 0.00 0.00 59 1013.1
20240523123720 39 139 0.0 3.0 0.00 0.00 0.00 60 1013.0
20240523123234 40 139 2.0 3.0 0.00 0.00 0.00 59 1013.1
20240523122727 39 139 2.0 3.0 0.00 0.00 0.00 61 1013.1
20240523122220 39 94 2.0 3.0 0.00 0.00 0.00 61 1013.0
20240523121717 39 94 1.0 2.0 0.00 0.00 0.00 61 1013.0
20240523121231 39 93 0.0 3.0 0.00 0.00 0.00 61 1013.0
20240523120724 39 93 1.0 3.0 0.00 0.00 0.00 62 1013.0
20240523120220 38 61 1.0 3.0 0.00 0.00 0.00 62 1012.9
20240523115713 38 60 2.0 3.0 0.00 0.00 0.00 61 1012.8
20240523115226 38 54 1.0 2.0 0.00 0.00 0.00 61 1012.8
20240523114719 39 55 1.0 2.0 0.00 0.00 0.00 61 1012.6
20240523114213 39 55 2.0 2.0 0.00 0.00 0.00 60 1012.7
20240523113727 40 54 0.0 2.0 0.00 0.00 0.00 59 1012.7
20240523113225 40 54 1.0 2.0 0.00 0.00 0.00 58 1012.6
20240523112718 41 54 1.0 2.0 0.00 0.00 0.00 59 1012.6
20240523112232 40 54 1.0 3.0 0.00 0.00 0.00 59 1012.7
20240523111725 41 54 2.0 3.0 0.00 0.00 0.00 58 1012.6
20240523111220 42 52 1.0 1.0 0.00 0.00 0.00 58 1012.4
20240523110754 42 52 0.0 2.0 0.00 0.00 0.00 57 1012.4
20240523110227 43 52 1.0 2.0 0.00 0.00 0.00 57 1012.3
20240523105720 42 53 0.0 1.0 0.00 0.00 0.00 58 1012.3
20240523105217 41 53 0.0 2.0 0.00 0.00 0.00 59 1012.3
20240523104730 41 53 1.0 2.0 0.00 0.00 0.00 59 1012.2
20240523104224 42 53 1.0 3.0 0.00 0.00 0.00 58 1012.0
20240523103718 42 52 1.0 3.0 0.00 0.00 0.00 58 1011.9
20240523103232 42 91 0.0 3.0 0.00 0.00 0.00 58 1011.9
20240523102745 42 91 2.0 3.0 0.00 0.00 0.00 59 1011.9
20240523102218 43 71 1.0 2.0 0.00 0.00 0.00 58 1011.8
20240523101732 42 71 1.0 2.0 0.00 0.00 0.00 59 1011.6
20240523101245 43 71 1.0 2.0 0.00 0.00 0.00 57 1011.4
20240523100722 43 71 0.0 1.0 0.00 0.00 0.00 57 1011.5
20240523100217 43 71 0.0 1.0 0.00 0.00 0.00 58 1011.4
20240523095730 43 71 0.0 1.0 0.00 0.00 0.00 58 1011.4
20240523095224 43 71 0.0 1.0 0.00 0.00 0.00 58 1011.2
20240523094714 44 71 0.0 1.0 0.00 0.00 0.00 58 1011.1
20240523094228 42 71 0.0 0.0 0.00 0.00 0.00 60 1011.1
20240523093721 42 71 0.0 2.0 0.00 0.00 0.00 59 1011.1
20240523093234 42 71 1.0 2.0 0.00 0.00 0.00 59 1011.0
20240523092726 43 71 0.0 1.0 0.00 0.00 0.00 58 1010.9
20240523092219 43 71 0.0 3.0 0.00 0.00 0.00 60 1010.9
20240523091718 42 71 1.0 3.0 0.00 0.00 0.00 58 1011.0
20240523091251 43 71 0.0 2.0 0.00 0.00 0.00 57 1010.7
20240523090725 45 71 1.0 2.0 0.00 0.00 0.00 55 1010.6
20240523090220 44 71 0.0 3.0 0.00 0.00 0.00 55 1010.7
20240523085753 45 71 1.0 3.0 0.00 0.00 0.00 55 1010.5
20240523085247 44 66 1.0 4.0 0.00 0.00 0.00 55 1010.5
20240523084718 45 75 2.0 4.0 0.00 0.00 0.00 54 1010.4
20240523084232 45 135 2.0 5.0 0.00 0.00 0.00 53 1010.4
20240523083725 46 100 1.0 5.0 0.00 0.00 0.00 52 1010.4
20240523083219 47 46 3.0 5.0 0.00 0.00 0.00 52 1010.3
20240523082737 45 98 1.0 3.0 0.00 0.00 0.00 53 1010.6
20240523082229 46 103 1.0 3.0 0.00 0.00 0.00 53 1010.2
20240523081722 46 103 2.0 3.0 0.00 0.00 0.00 50 1010.5
20240523081216 47 58 0.0 3.0 0.00 0.00 0.00 50 1010.4
20240523080729 47 58 2.0 3.0 0.00 0.00 0.00 51 1010.4
20240523080244 48 53 1.0 2.0 0.00 0.00 0.00 49 1010.4
20240523075716 48 53 1.0 4.0 0.00 0.00 0.00 48 1010.3
20240523075231 48 316 1.0 4.0 0.00 0.00 0.00 49 1010.2
20240523074724 49 299 0.0 2.0 0.00 0.00 0.00 48 1010.2
20240523074238 48 299 0.0 2.0 0.00 0.00 0.00 47 1010.0
20240523073714 49 299 1.0 6.0 0.00 0.00 0.00 46 1009.9
20240523073228 50 305 1.0 7.0 0.00 0.00 0.00 45 1009.8
20240523072722 51 299 2.0 10.0 0.00 0.00 0.00 43 1009.6
20240523072236 52 297 2.0 10.0 0.00 0.00 0.00 40 1009.4
20240523071727 52 94 2.0 4.0 0.00 0.00 0.00 40 1009.5
20240523071221 53 134 1.0 4.0 0.00 0.00 0.00 38 1009.5
20240523070735 53 92 2.0 11.0 0.00 0.00 0.00 38 1009.1
20240523070229 54 344 1.0 12.0 0.00 0.00 0.00 36 1009.1
20240523065722 55 345 5.0 19.0 0.00 0.00 0.00 33 1009.0
20240523065240 57 271 4.0 19.0 0.00 0.00 0.00 27 1008.7
20240523064732 60 360 7.0 13.0 0.00 0.00 0.00 14 1008.5
20240523064226 60 195 4.0 16.0 0.00 0.00 0.00 13 1008.2
20240523063739 62 286 8.0 18.0 0.00 0.00 0.00 12 1008.5
20240523063232 63 221 8.0 18.0 0.00 0.00 0.00 10 1007.3
20240523062725 63 222 10.0 21.0 0.00 0.00 0.00 10 1006.8
20240523062239 63 181 11.0 21.0 0.00 0.00 0.00 11 1006.6
20240523061731 63 168 12.0 19.0 0.00 0.00 0.00 10 1006.6
20240523061226 63 139 10.0 24.0 0.00 0.00 0.00 10 1006.6
20240523060720 63 243 10.0 24.0 0.00 0.00 0.00 10 1006.7
20240523060239 64 154 11.0 25.0 0.00 0.00 0.00 10 1006.7
20240523055731 64 184 15.0 25.0 0.00 0.00 0.00 10 1006.8
20240523055225 64 172 11.0 18.0 0.00 0.00 0.00 10 1006.8
20240523054739 64 191 11.0 18.0 0.00 0.00 0.00 10 1006.9
20240523054232 64 165 12.0 24.0 0.00 0.00 0.00 10 1006.8
20240523053725 64 175 12.0 25.0 0.00 0.00 0.00 10 1006.6
20240523053219 64 194 15.0 25.0 0.00 0.00 0.00 10 1006.6
20240523052732 64 231 13.0 27.0 0.00 0.00 0.00 10 1006.9
20240523052246 65 237 12.0 23.0 0.00 0.00 0.00 10 1006.8
20240523051738 65 233 13.0 21.0 0.00 0.00 0.00 10 1006.9
20240523051236 65 239 12.0 21.0 0.00 0.00 0.00 10 1007.0
20240523050728 65 148 12.0 21.0 0.00 0.00 0.00 10 1007.0
20240523050243 65 216 13.0 22.0 0.00 0.00 0.00 10 1007.1
20240523045715 65 218 11.0 25.0 0.00 0.00 0.00 10 1007.1
20240523045229 65 242 12.0 25.0 0.00 0.00 0.00 9 1007.1
20240523044723 65 207 12.0 23.0 0.00 0.00 0.00 10 1006.9
20240523044216 65 225 12.0 24.0 0.00 0.00 0.00 9 1006.8
20240523043730 65 215 13.0 24.0 0.00 0.00 0.00 9 1006.8
20240523043223 66 160 13.0 24.0 0.00 0.00 0.00 9 1006.6
20240523042721 65 204 12.0 21.0 0.00 0.00 0.00 9 1006.6
20240523042214 65 193 13.0 26.0 0.00 0.00 0.00 9 1006.5
20240523041727 66 220 12.0 26.0 0.00 0.00 0.00 9 1006.4
20240523041221 66 239 12.0 24.0 0.00 0.00 0.00 10 1006.6
20240523040715 66 186 13.0 24.0 0.00 0.00 0.00 9 1006.6
20240523040250 66 160 10.0 22.0 0.00 0.00 0.00 9 1006.4
20240523035722 66 216 11.0 22.0 0.00 0.00 0.00 9 1006.4
20240523035216 66 196 11.0 25.0 0.00 0.00 0.00 9 1006.4
20240523034713 66 225 12.0 25.0 0.00 0.00 0.00 9 1006.4
20240523034227 66 225 10.0 22.0 0.00 0.00 0.00 9 1006.4
20240523033721 66 195 11.0 21.0 0.00 0.00 0.00 9 1006.2
20240523033214 67 246 10.0 19.0 0.00 0.00 0.00 9 1006.2
20240523032727 67 245 11.0 19.0 0.00 0.00 0.00 9 1006.2
20240523032221 68 164 9.0 19.0 0.00 0.00 0.00 8 1006.3
20240523031714 68 189 9.0 19.0 0.00 0.00 0.00 8 1006.2
20240523031229 68 206 9.0 17.0 0.00 0.00 0.00 8 1006.2
20240523030727 69 224 9.0 22.0 0.00 0.00 0.00 7 1006.2
20240523030222 69 171 12.0 22.0 0.00 0.00 0.00 7 1006.2
20240523025714 70 210 14.0 28.0 0.00 0.00 0.00 7 1006.2
20240523025229 70 139 13.0 28.0 0.00 0.00 0.00 6 1006.2
20240523024742 70 232 16.0 25.0 0.00 0.00 0.00 6 1006.2
20240523024215 70 176 12.0 25.0 0.00 0.00 0.00 6 1006.2
20240523023729 71 219 12.0 18.0 0.00 0.00 0.00 6 1006.1
20240523023223 71 205 10.0 16.0 0.00 0.00 0.00 6 1006.2
20240523022717 71 241 9.0 21.0 0.00 0.00 0.00 6 1006.1
20240523022214 71 239 11.0 21.0 0.00 0.00 0.00 6 1006.1
20240523021728 72 214 12.0 21.0 0.00 0.00 0.00 5 1006.0
20240523021242 72 214 9.0 14.0 0.00 0.00 0.00 6 1006.0
20240523020714 72 244 9.0 18.0 0.00 0.00 0.00 6 1006.0
20240523020229 72 214 9.0 18.0 0.00 0.00 0.00 5 1006.0
20240523015742 72 231 10.0 23.0 0.00 0.00 0.00 5 1006.0
20240523015215 72 243 12.0 23.0 0.00 0.00 0.00 5 1006.1
20240523014729 73 242 10.0 22.0 0.00 0.00 0.00 5 1006.2
20240523014222 73 254 11.0 22.0 0.00 0.00 0.00 5 1006.2
20240523013719 73 272 10.0 19.0 0.00 0.00 0.00 5 1006.2
20240523013213 73 252 10.0 22.0 0.00 0.00 0.00 5 1006.3
20240523012746 73 237 10.0 22.0 0.00 0.00 0.00 5 1006.3
20240523012219 73 254 10.0 20.0 0.00 0.00 0.00 5 1006.4
20240523011712 73 254 9.0 23.0 0.00 0.00 0.00 5 1006.5
20240523011226 73 286 14.0 23.0 0.00 0.00 0.00 4 1006.5
20240523010719 74 263 14.0 21.0 0.00 0.00 0.00 4 1006.4
20240523010215 73 243 12.0 18.0 0.00 0.00 0.00 5 1006.5
20240523005713 72 255 6.0 14.0 0.00 0.00 0.00 7 1006.6
20240523005227 72 243 7.0 23.0 0.00 0.00 0.00 6 1006.6
20240523004720 73 193 12.0 23.0 0.00 0.00 0.00 5 1006.6
20240523004214 74 227 13.0 21.0 0.00 0.00 0.00 5 1006.6
20240523003727 73 223 11.0 19.0 0.00 0.00 0.00 5 1006.6
20240523003221 72 232 12.0 19.0 0.00 0.00 0.00 4 1006.7
20240523002715 74 221 8.0 22.0 0.00 0.00 0.00 6 1006.8
20240523002229 73 229 8.0 25.0 0.00 0.00 0.00 6 1006.9
20240523001722 74 253 17.0 25.0 0.00 0.00 0.00 4 1006.9
20240523001241 75 203 15.0 21.0 0.00 0.00 0.00 4 1006.8
20240523000713 76 272 14.0 23.0 0.00 0.00 0.00 4 1006.9
20240523000229 74 246 14.0 22.0 0.00 0.00 0.00 4 1006.9
20240522235722 76 229 8.0 26.0 0.00 0.00 0.00 6 1007.1
20240522235236 74 202 13.0 26.0 0.00 0.00 0.00 5 1007.1
20240522234729 74 239 13.0 23.0 0.00 0.00 0.00 4 1007.1
20240522234223 75 254 12.0 23.0 0.00 0.00 0.00 4 1007.3
20240522233716 76 243 13.0 27.0 0.00 0.00 0.00 5 1007.4
20240522233214 76 221 16.0 27.0 0.00 0.00 0.00 5 1007.4
20240522232728 75 245 14.0 27.0 0.00 0.00 0.00 5 1007.1
20240522232222 76 258 15.0 25.0 0.00 0.00 0.00 5 1007.4
20240522231715 76 255 11.0 21.0 0.00 0.00 0.00 3 1007.4
20240522231229 76 228 13.0 25.0 0.00 0.00 0.00 4 1007.5
20240522230723 76 237 13.0 25.0 0.00 0.00 0.00 5 1007.6
20240522230218 76 287 13.0 21.0 0.00 0.00 0.00 4 1007.6
20240522225731 77 246 13.0 20.0 0.00 0.00 0.00 4 1007.6
20240522225229 76 273 11.0 24.0 0.00 0.00 0.00 5 1007.6
20240522224722 76 292 12.0 24.0 0.00 0.00 0.00 4 1007.8
20240522224216 76 243 11.0 24.0 0.00 0.00 0.00 5 1007.8
20240522223730 76 254 12.0 22.0 0.00 0.00 0.00 5 1007.8
20240522223224 76 243 13.0 25.0 0.00 0.00 0.00 4 1007.9
20240522222718 76 264 14.0 25.0 0.00 0.00 0.00 4 1007.9
20240522222232 75 250 12.0 22.0 0.00 0.00 0.00 4 1007.9
20240522221725 76 255 13.0 22.0 0.00 0.00 0.00 5 1008.0
20240522221223 76 252 14.0 22.0 0.00 0.00 0.00 6 1008.3
20240522220716 76 226 14.0 23.0 0.00 0.00 0.00 5 1008.3
20240522220251 76 235 12.0 24.0 0.00 0.00 0.00 4 1008.3
20240522215743 76 225 13.0 24.0 0.00 0.00 0.00 5 1008.4
20240522215216 76 259 16.0 23.0 0.00 0.00 0.00 4 1008.5
20240522214730 76 279 13.0 23.0 0.00 0.00 0.00 5 1008.5
20240522214224 76 254 14.0 18.0 0.00 0.00 0.00 6 1008.7
20240522213718 76 264 11.0 23.0 0.00 0.00 0.00 5 1008.8
20240522213233 76 237 13.0 23.0 0.00 0.00 0.00 5 1008.9
20240522212730 77 274 12.0 21.0 0.00 0.00 0.00 4 1009.1
20240522212224 76 253 12.0 19.0 0.00 0.00 0.00 6 1009.1
20240522211717 75 276 12.0 21.0 0.00 0.00 0.00 6 1009.2
20240522211231 76 272 13.0 20.0 0.00 0.00 0.00 5 1009.5
20240522210725 76 235 12.0 20.0 0.00 0.00 0.00 6 1009.3
20240522210219 77 268 9.0 20.0 0.00 0.00 0.00 7 1009.5
20240522205732 75 243 11.0 26.0 0.00 0.00 0.00 6 1009.5
20240522205226 76 241 14.0 26.0 0.00 0.00 0.00 5 1009.7
20240522204719 76 240 12.0 21.0 0.00 0.00 0.00 6 1009.7
20240522204216 75 222 10.0 23.0 0.00 0.00 0.00 6 1009.8
20240522203729 75 228 12.0 23.0 0.00 0.00 0.00 7 1009.9
20240522203224 76 252 11.0 22.0 0.00 0.00 0.00 7 1010.0
20240522202717 75 252 15.0 22.0 0.00 0.00 0.00 4 1010.1
20240522202231 75 268 10.0 20.0 0.00 0.00 0.00 6 1010.0
20240522201745 74 286 12.0 26.0 0.00 0.00 0.00 6 1010.2
20240522201218 74 262 15.0 26.0 0.00 0.00 0.00 5 1010.2
20240522200751 73 244 15.0 26.0 0.00 0.00 0.00 8 1010.1
20240522200226 73 282 14.0 26.0 0.00 0.00 0.00 6 1010.3
20240522195723 75 236 13.0 20.0 0.00 0.00 0.00 6 1010.4
20240522195217 73 221 8.0 22.0 0.00 0.00 0.00 6 1010.4
20240522194751 74 222 13.0 22.0 0.00 0.00 0.00 6 1010.6
20240522194244 73 273 10.0 19.0 0.00 0.00 0.00 7 1010.5
20240522193716 72 190 9.0 19.0 0.00 0.00 0.00 7 1010.7
20240522193231 74 225 12.0 19.0 0.00 0.00 0.00 7 1010.8
20240522192744 73 274 11.0 15.0 0.00 0.00 0.00 6 1010.8
20240522192217 73 266 11.0 17.0 0.00 0.00 0.00 6 1011.0
20240522191730 73 216 9.0 16.0 0.00 0.00 0.00 6 1011.2
20240522191224 73 271 9.0 16.0 0.00 0.00 0.00 6 1011.2
20240522190722 73 243 12.0 18.0 0.00 0.00 0.00 7 1011.4
20240522190217 72 229 9.0 24.0 0.00 0.00 0.00 6 1011.6
20240522185730 72 235 13.0 24.0 0.00 0.00 0.00 7 1011.6
20240522185224 72 241 11.0 17.0 0.00 0.00 0.00 7 1011.6
20240522184718 71 196 9.0 21.0 0.00 0.00 0.00 6 1011.7
20240522184231 72 231 14.0 21.0 0.00 0.00 0.00 7 1011.9
20240522183724 72 270 10.0 19.0 0.00 0.00 0.00 6 1011.8
20240522183220 72 246 13.0 23.0 0.00 0.00 0.00 6 1011.8
20240522182717 72 216 12.0 23.0 0.00 0.00 0.00 6 1011.7
20240522182231 73 254 9.0 24.0 0.00 0.00 0.00 6 1011.9
20240522181725 71 226 13.0 24.0 0.00 0.00 0.00 6 1011.9
20240522181239 70 287 13.0 35.0 0.00 0.00 0.00 5 1011.9